Location: Silverdale
(47.6506°N, 122.6941°W)
Time: 01:19:38
(UTC+00:00)

A-11 Canister half - Pass Details

Date: 03 October 2022
Orbit: 1524 x 1685 km, 47.3° (Epoch: 05 December)

Event Time Altitude Azimuth Distance (km) Brightness Sun altitude
Rises 05:42:17 0° 291° (WNW) 4,722 12.4 -37.3°
Reaches altitude 10° 05:45:30 10° 284° (WNW) 3,755 11.6 -37.7°
Enters shadow 05:53:13 41° 232° (SW) 2,163 9.6 -38.5°
